Regional Weather Roundup
Issued by NWS

Home | Current Version | Previous Version | Text Only | Print | Product List | Glossary On
Versions: 1 2 3 4 5 6 7 8 9 10 11 12 13 14 15 16 17 18 19 20 21 22 23 24 25 26 27 28 29 30 31 32 33 34 35 36 37 38 39 40 41 42 43 44 45 46 47 48 49 50
000
ASUS43 KLOT 210212
RWRIL

ILLINOIS REGIONAL WEATHER ROUNDUP
NATIONAL WEATHER SERVICE CHICAGO/ROMEOVILLE IL
900 PM CDT MON APR 20 2015

NOTE: "FAIR" INDICATES FEW OR NO CLOUDS BELOW 12,000 FEET WITH NO
SIGNIFICANT WEATHER AND/OR OBSTRUCTIONS TO VISIBILITY.

* THESE STATIONS ARE NOT UNDER NWS QUALITY CONTROL. THEY ALSO MAY NOT
  REPORT WEATHER SUCH AS PRECIPITATION OR FOG.

ILZ001-002-007-009-015-016-024-210300-
NORTHWEST ILLINOIS

CITY           SKY/WX    TMP DP  RH WIND       PRES   REMARKS
MOLINE         PTCLDY    40  34  79 S3        29.66S
STERLING*      PTCLDY    43  36  75 W12       29.66R
SAVANNA*       MOCLDY    45  35  66 W12       29.64R
$$

ILZ003-004-008-010-011-017-018-210300-
NORTH CENTRAL ILLINOIS

CITY           SKY/WX    TMP DP  RH WIND       PRES   REMARKS
ROCKFORD       MOCLDY    43  31  62 W12       29.62R
FREEPORT*      MOCLDY    42  31  64 W14G22    29.63R
ROCHELLE*      PTCLDY    40  36  85 W10       29.64S
DE KALB*       MOCLDY    42  32  69 W14G20    29.62S
PERU*          CLOUDY    45  33  63 W17G26    29.68R
$$

ILZ005-006-012>014-019>023-210300-
NORTHEAST ILLINOIS

CITY           SKY/WX    TMP DP  RH WIND       PRES   REMARKS
CHICAGO-OHARE  PTCLDY    43  31  62 W12G21    29.60R
CHICAGO-MIDWAY PTCLDY    47  31  53 W15G22    29.62R
AURORA         CLOUDY    44  33  65 W12       29.64R
LANSING*       PTCLDY    44  29  57 W9        29.65R
JOLIET*        CLOUDY    46  37  69 W9G17     29.65R
WAUKEGAN       MOCLDY    43  31  62 VRB7      29.56R
DUPAGE AIRPORT CLOUDY    44  31  60 W13       29.61R
KANKAKEE*      CLOUDY    44  37  75 W14       29.68R
WHEELING       CLEAR     44  29  55 W9G17     29.60R
MORRIS*        CLOUDY    45  36  70 W18G26    29.63R
ROMEOVILLE*    CLOUDY    44  33  65 W12       29.64R
NORTHERLY ISL    N/A     46  29  51 SW12        N/A
$$

LMZ740>746-210300-
SOUTHERN LAKE MICHIGAN

STATION/POSITION SKY/WX   TEMP    WIND        PRES    VSBY  WAVE
                          AIR SEA DIR/SP/G                  HT/PER
                          (F)     (DEG/KT/KT) (MB)    (MI)  (FT/S)
HARRISON CRIB              46     270/ 24/ 32   N/A
BURNHAM HARBOR             46     250/ 10/ 19   N/A
CALUMET HARBOR             46     250/ 15/ 23   N/A
BURNS HARBOR               47     260/ 20/ 28 1003.0R
MICHIGAN CITY              45     240/ 23/ 26   N/A
MICHIGAN CITY 6N           45 45  270/ 17/ 25   N/A           5/ 5
$$

ILZ025>027-034>036-040-047-049-050-058-095>099-210300-
WEST-CENTRAL ILLINOIS

CITY           SKY/WX    TMP DP  RH WIND       PRES   REMARKS
QUINCY         CLEAR     47  27  45 SW9       29.76R
GALESBURG*     CLEAR     46  29  51 SW6       29.69S
MACOMB*        CLEAR     44  32  62 W7        29.74S
JACKSONVILLE*  PTCLDY    50  33  52 SW8       29.77R
PITTSFIELD*    CLEAR     50  29  45 SW8       29.79R
$$

ILZ028>032-037-038-041>044-048-051>054-059>061-210300-
CENTRAL ILLINOIS

CITY           SKY/WX    TMP DP  RH WIND       PRES   REMARKS
PONTIAC        MOCLDY    45  37  74 W12       29.70S
BLOOMINGTON    PTCLDY    46  36  68 W10       29.72R
DECATUR        CLOUDY    49  34  56 W10       29.75R
PEORIA         MOCLDY    50  28  42 W16G24    29.71R
LACON*         CLOUDY    45  35  68 NW5       29.70R
LINCOLN*       PTCLDY    49  33  53 W5        29.73S
SPRINGFIELD    PTCLDY    47  36  65 W10       29.77R
TAYLORVILLE    MOCLDY    46  36  66 SW9       29.77S
$$

ILZ033-039-045-046-055>057-062-063-210300-
EAST-CENTRAL ILLINOIS

CITY           SKY/WX    TMP DP  RH WIND       PRES   REMARKS
CHAMPAIGN      MOCLDY    45  37  73 SW12      29.74R
DANVILLE*      MOCLDY    45  36  71 W14       29.71R
RANTOUL*       MOCLDY    47  38  69 W12G21    29.72R
MATTOON        MOCLDY    46  35  65 SW6       29.77R
PARIS*         CLOUDY    46  40  78 SW7       29.77R
$$

ILZ079-100>102-210300-
SOUTHWEST ILLINOIS

CITY           SKY/WX    TMP DP  RH WIND       PRES   REMARKS
ALTON          PTCLDY    48  32  53 W8        29.83R
BELLEVILLE     MOCLDY    51  34  52 SW3       29.82R
CAHOKIA*       MOCLDY    52  32  46 W6        29.83R
SPARTA*        CLEAR     50  34  53 W3        29.85R
$$

ILZ064>066-069>071-074>076-080>082-084>086-088>090-092>094-210300-
SOUTH-CENTRAL ILLINOIS

CITY           SKY/WX    TMP DP  RH WIND       PRES   REMARKS
CARBONDALE     PTCLDY    51  34  52 W3        29.85R
CAIRO*         PTCLDY    55  39  55 NW5       29.86R
EFFINGHAM*     MOCLDY    48  32  54 SW6       29.81R
MARION         FAIR      50  39  66 CALM      29.85R
MT. VERNON     MOCLDY    46  34  61 SW3       29.84R
CENTRALIA*     PTCLDY    46  35  65 SW5       29.83R
SALEM*         PTCLDY    50  36  58 W5        29.82R
METROPOLIS*    PTCLDY    55  37  51 NW3       29.85R
$$

ILZ067-068-072-073-078-083-087-091-210300-
SOUTHEAST ILLINOIS

CITY           SKY/WX    TMP DP  RH WIND       PRES   REMARKS
LAWRENCEVILLE  MOCLDY    50  36  58 W9        29.81R
FLORA*         MOCLDY    48  34  58 W3        29.82R
FAIRFIELD*     MOCLDY    50  36  60 CALM      29.82R
HARRISBURG*    PTCLDY    51  36  56 NW3       29.86R
ROBINSON*      MOCLDY    49  37  63 W9        29.81R
CARMI*         MOCLDY    51  33  50 W8        29.84R
$$

ABBREVIATIONS USED IN REMARKS
   TC - TEMPERATURE IN CELSIUS
  WCI - WIND CHILL INDEX
   HX - HEAT INDEX
  VSB - VISIBILITY
$$



USA.gov is the U.S. government's official web portal to all federal, state and local government web resources and services.